CAPE
0 0 0 0 0 0 0 0 0 0 0 0 0 0 0 1 18 11 813 1408 1532 1497 1697 1557 1591 1739 1768 1788 1687 1581 1818 1822 1700 1599 1475 1421 1307 1246 1067 941 1040 1274 1327 899 641 726 728 740 728
0 0 0 0 0 0 0 0 0 0 0 0 0 0 0 395 947 959 927 1508 1601 1416 1708 1704 1608 1728 1831 1816 1770 1629 1851 1828 1761 1595 1474 1448 1382 1255 1404 1273 1122 1248 1299 821 630 814 669 766 660
0 0 0 0 0 0 0 0 0 0 0 0 0 0 0 346 1004 954 902 1481 1615 1522 1594 1841 1620 1688 1862 1831 1792 1630 1764 1820 1734 1558 1567 1561 1462 1686 1732 1491 1392 1291 975 771 524 683 660 677 479
0 0 0 0 0 0 0 0 0 0 0 0 0 2 3 28 737 742 836 1079 1483 1440 1340 1717 1777 1720 1860 1866 1863 1699 1680 1623 1576 1527 1643 1776 1836 1868 1667 1395 1352 1363 1213 1026 816 760 762 461 299
0 0 0 0 0 0 0 0 0 0 0 0 0 0 0 356 616 746 632 895 688 1154 1390 1561 1894 1800 1876 1976 1918 1696 1574 1556 1544 1554 1601 1770 1872 1802 1440 1306 1229 1164 1058 958 869 706 358 170 40
0 0 0 0 0 0 0 0 0 0 0 0 0 6 10 468 547 516 487 673 979 1167 1428 1554 1574 1918 1940 1821 1500 1326 1375 1406 1325 1436 1605 1676 1574 1418 1383 1256 1010 965 790 670 614 207 91 19 0
0 0 0 0 0 0 0 0 0 0 0 0 0 0 88 287 308 521 436 605 1402 1394 1312 1265 1235 1494 1709 1723 1348 1067 808 288 353 316 643 343 677 767 1098 1149 1046 729 577 507 278 94 21 11 0
0 0 0 0 0 0 0 0 0 0 0 0 0 7 84 129 398 360 591 847 1100 1157 1107 1267 1174 1058 1069 1004 1041 856 516 285 193 156 65 66 280 502 799 871 727 534 412 304 181 53 18 3 0
0 0 0 0 0 0 0 0 0 0 5 1 0 2 0 249 396 654 768 783 788 743 669 780 1094 843 1058 771 698 614 360 303 205 125 32 29 195 319 508 368 410 354 185 120 77 19 6 0 0
0 0 0 0 0 0 0 0 0 0 0 0 7 520 265 374 342 637 701 679 626 534 517 487 743 811 642 1225 546 322 139 154 79 12 0 0 1 208 231 261 225 172 88 64 37 1 0 0 0
0 0 0 0 0 0 0 0 0 0 0 0 0 602 496 468 432 333 609 615 605 623 715 595 550 421 598 434 583 483 126 95 30 16 1 1 0 126 170 124 45 42 65 23 0 0 0 0 0
0 0 0 0 0 0 0 0 0 0 0 0 2 653 660 653 390 292 356 551 581 642 679 655 452 195 97 67 71 49 0 0 8 9 2 0 25 115 64 24 1 4 1 0 0 0 0 0 0
0 0 0 0 0 0 0 0 0 0 0 0 23 555 558 244 148 150 141 441 712 558 379 491 369 212 94 36 0 0 0 0 2 0 0 38 69 33 11 0 0 0 0 0 0 0 0 0 0
0 0 0 0 0 0 0 0 0 0 0 0 0 206 145 123 178 141 385 593 434 142 188 263 240 282 68 49 0 2 3 3 1 0 0 10 31 0 1 0 0 0 0 0 0 0 0 0 0
0 0 0 0 0 0 0 0 0 0 0 0 0 7 103 288 112 76 142 153 93 43 87 164 199 59 37 0 0 1 0 0 1 0 3 75 37 9 0 0 0 0 0 0 0 0 0 0 0
0 0 0 0 0 0 0 0 0 0 0 0 0 0 0 17 70 61 35 48 28 4 75 80 52 0 0 0 0 0 0 4 12 9 2 5 52 7 0 0 0 0 0 0 0 0 0 0 0
0 0 0 0 0 0 0 0 0 0 0 0 0 0 0 0 61 89 53 49 19 0 22 64 27 1 2 5 1 2 5 12 34 18 46 14 11 5 0 0 0 0 0 0 0 0 0 0 0
0 0 0 0 0 0 0 0 0 0 0 0 0 0 0 0 116 117 96 53 10 0 1 1 2 2 0 0 7 0 4 25 17 27 38 56 38 45 0 0 0 0 0 0 0 0 0 0 0
0 0 0 0 0 0 0 0 0 0 0 0 0 0 0 11 80 146 103 69 53 0 0 0 1 0 0 0 0 2 0 0 11 24 24 16 28 45 13 0 0 0 0 0 0 0 0 0 0
0 0 0 0 0 0 0 0 0 0 0 0 0 0 0 18 95 173 126 107 97 47 0 0 0 2 1 3 0 7 0 9 13 20 33 52 58 45 38 3 6 14 0 0 10 4 0 1 0
0 0 0 0 0 0 0 0 0 0 0 0 0 0 0 14 122 202 165 149 114 60 8 0 0 0 3 5 0 0 24 2 0 21 36 8 27 26 9 4 9 67 37 21 45 27 16 15 4
0 0 0 1 0 0 0 0 0 0 0 0 0 0 0 0 75 220 192 162 101 65 15 0 0 0 4 4 0 0 0 1 1 27 30 20 10 15 7 4 13 64 70 51 58 66 49 19 0
0 0 0 0 0 0 0 0 0 0 0 0 0 0 0 0 21 134 217 166 94 57 23 0 0 0 0 4 0 0 0 0 9 0 17 22 1 7 25 10 41 44 53 63 52 63 47 26 25
0 0 0 0 0 0 0 0 0 0 0 0 0 0 0 1 16 77 137 136 100 63 26 0 0 0 0 1 0 0 0 0 0 2 0 3 6 17 9 23 19 37 31 49 42 30 14 20 59
0 0 0 0 0 0 0 0 0 0 0 0 0 0 0 0 5 24 83 105 97 81 37 0 0 0 0 0 4 0 0 0 0 0 0 0 1 2 1 3 3 18 13 3 5 0 0 8 55
0 0 0 0 0 0 0 0 0 0 0 0 0 0 0 0 0 18 79 97 102 79 38 0 0 0 0 0 2 0 0 0 0 0 0 0 0 0 7 8 6 7 20 1 6 22 11 48 63
0 0 0 0 0 0 0 0 0 0 0 0 0 0 0 0 0 13 82 120 133 105 54 12 0 0 0 0 1 1 3 0 0 0 0 0 5 10 3 2 17 13 13 25 24 69 77 63 79
0 0 0 0 0 0 0 0 0 0 0 2 0 0 0 8 16 20 108 173 164 121 73 32 0 0 0 0 0 0 2 4 0 0 0 0 0 0 7 21 22 15 3 30 40 27 35 48 51
0 0 0 0 0 0 0 0 2 0 0 0 0 0 0 0 7 71 148 210 192 167 117 68 3 0 0 0 1 0 0 2 2 0 0 0 0 0 0 12 15 11 17 18 7 17 15 17 22
0 0 0 0 0 3 0 0 0 0 0 0 0 5 0 0 0 68 139 151 183 186 165 145 116 17 0 0 0 0 0 0 2 2 0 0 1 0 0 0 1 6 5 12 16 18 20 17 15
CIN
0 0 0 0 0 0 0 0 0 0 0 0 0 0 0 -34 -29 -9 -147 -122 -74 -177 -122 -110 -74 -39 -57 -70 -98 -83 -30 -25 -20 -6 -16 0 0 0 0 -0 0 0 0 0 0 -1 0 -0 0
0 0 0 0 0 0 0 0 0 0 0 0 0 0 0 -136 -132 -145 -148 -137 -92 -150 -140 -124 -112 -55 -30 -44 -52 -63 -25 -12 -8 -16 -6 -3 -1 -1 0 -0 -0 0 0 -1 -0 -0 -0 0 0
0 0 0 0 0 0 0 0 0 0 0 0 0 0 0 -160 -130 -148 -134 -149 -100 -116 -157 -97 -108 -63 -17 -20 -16 -32 -17 -8 -8 -1 -0 -1 0 0 0 -0 -0 0 0 -0 -0 -0 0 0 -3
0 0 0 0 0 0 0 0 0 0 0 0 0 -58 -182 -200 -120 -117 -147 -169 -138 -141 -114 -82 -51 -43 -15 -8 -0 -4 -18 -15 -15 -22 -0 0 0 0 0 -0 -0 0 -0 -0 -0 0 0 -1 -23
0 0 0 0 0 0 0 0 0 0 0 0 0 0 0 -201 -153 -176 -199 -213 -194 -129 -124 -45 -41 -43 -24 -4 -1 -0 -6 -3 -5 -5 -0 0 0 0 0 -0 -0 -0 -0 -0 0 0 -4 -25 -78
0 0 0 0 0 0 0 0 0 0 0 0 0 -206 -169 -179 -190 -209 -193 -200 -206 -161 -86 -35 -36 -17 -17 -21 -28 -23 -14 -3 -2 -1 -0 -0 -1 -0 -0 -0 -1 -1 -5 -1 -0 -24 -69 -22 0
0 0 0 0 0 0 0 0 0 0 0 0 0 0 -185 -180 -230 -202 -215 -199 -153 -137 -84 -54 -26 -5 0 -4 -15 -16 -11 -3 -1 -5 -5 -20 -10 -5 -2 -1 -1 -2 -13 -1 -0 -26 -92 -35 -2
0 0 0 0 0 0 0 0 0 0 0 0 0 -52 -169 -117 -222 -221 -304 -214 -180 -122 -105 -62 -34 -16 -4 0 -6 -19 -50 -10 -3 -9 -1 -4 -25 -3 -5 -2 -1 -24 -20 -6 -9 -55 -44 -24 0
0 0 0 0 0 0 0 0 0 0 -59 -11 0 -28 0 -188 -184 -270 -222 -179 -195 -181 -156 -130 -42 -41 -3 -12 -1 -10 -46 -19 -83 -23 -53 -61 -1 -3 -11 -17 -10 -16 -60 -17 -23 -95 -58 0 0
0 0 0 0 0 0 0 0 0 0 -9 0 -14 -282 -310 -203 -215 -228 -228 -199 -185 -234 -183 -151 -66 -28 -20 0 -4 -26 -51 -43 -22 -29 0 0 -0 -2 -18 -25 -37 -81 -82 -41 -59 -18 0 0 0
0 0 0 0 0 0 0 0 0 0 0 0 -2 -227 -274 -232 -134 -226 -234 -211 -178 -214 -122 -103 -44 -50 -13 -2 0 -2 -35 -18 -30 -39 -3 -3 -3 -0 -14 -6 -54 -130 -113 -165 -7 0 0 0 0
0 0 0 0 0 0 0 0 0 0 0 0 -17 -205 -156 -146 -176 -190 -199 -220 -182 -171 -107 -63 -27 -40 -42 -23 -18 -50 0 0 -50 -21 -111 0 -45 0 -4 -41 -50 -100 -232 0 0 0 0 0 0
0 0 0 0 0 0 0 0 0 0 0 0 -95 -136 -125 -142 -154 -147 -308 -275 -194 -142 -169 -117 -60 -67 -67 -44 0 0 0 0 -139 0 0 -35 -40 -34 -24 0 0 0 0 0 0 0 0 0 0
0 0 0 0 0 0 0 0 0 0 0 0 -13 -134 -113 -123 -87 -105 -308 -250 -233 -265 -226 -182 -139 -74 -109 -33 0 0 0 0 -1 0 0 0 -7 0 0 0 0 0 0 0 0 0 0 0 0
0 0 0 0 0 0 0 0 0 0 0 0 0 -45 -99 -88 -89 -173 -318 -357 -366 -325 -270 -213 -163 -163 -126 0 0 0 0 0 -7 0 0 0 -10 -46 0 0 0 0 0 0 0 0 0 0 0
0 0 0 0 0 0 0 0 0 0 0 0 0 0 0 -105 -94 -98 -108 -398 -410 -179 -289 -238 -227 0 -0 0 0 0 0 -7 -11 -16 -17 -0 -6 -4 0 0 0 0 0 0 0 0 0 0 0
0 0 0 0 0 0 0 0 0 0 0 0 0 0 0 0 -96 -100 -115 -408 -372 0 -380 -262 -210 -8 -4 0 0 0 0 0 -1 -6 -6 -0 -14 -55 0 0 0 0 0 0 0 0 0 0 0
0 0 0 0 0 0 0 0 0 0 0 0 0 0 0 0 -120 -101 -103 -60 -284 0 -83 -96 -2 0 0 0 -20 0 0 -5 -9 -3 -11 -5 -6 -8 0 0 0 0 0 0 0 0 0 0 0
0 0 0 0 0 0 0 0 0 0 0 0 0 0 0 -135 -140 -124 -84 -43 -52 0 0 0 -0 0 0 0 0 0 0 -4 -6 -2 -10 -9 -14 -3 -9 0 0 0 0 0 0 0 0 0 0
0 0 0 0 0 0 0 0 0 -0 0 0 0 0 0 -145 -180 -123 -106 -107 -54 -73 -6 0 0 0 0 -1 0 0 -0 -35 -21 -5 -0 0 -3 -6 -11 0 -46 -128 0 0 -10 -33 0 -0 0
0 0 0 0 0 0 0 0 0 0 0 0 0 -3 0 -221 -198 -138 -115 -108 -102 -76 -95 0 0 0 -1 -0 0 0 -9 -1 0 -0 0 -2 -0 -1 0 -1 0 -33 -92 -38 -27 -11 -15 -32 -68
0 0 0 -5 0 0 0 0 0 0 0 0 0 0 0 0 -181 -129 -119 -122 -87 -98 -81 -1 0 0 -11 0 0 0 0 0 0 -1 0 -1 -4 0 0 0 0 -7 -23 -22 -13 -8 -1 -2 0
0 0 0 0 0 0 0 0 0 0 0 0 0 0 0 -19 -243 -126 -144 -130 -78 -57 -75 0 0 0 0 -12 0 0 0 0 0 0 0 -1 -11 -0 0 0 -5 -6 -9 -11 -7 -6 -1 -5 -6
0 0 0 0 0 0 0 0 0 0 0 0 0 0 0 -279 -265 -120 -119 -131 -77 -61 -79 0 0 0 0 -12 0 0 0 0 0 0 0 -0 -2 0 -2 0 -1 -0 -1 -22 -13 -3 0 -4 -1
0 0 0 0 0 0 0 0 0 0 0 0 0 0 0 0 -236 -123 -108 -114 -87 -55 -57 0 0 0 0 0 -7 0 0 0 0 0 0 0 -1 -2 -6 -1 -7 -0 -1 0 0 0 0 -0 0
0 0 0 0 0 0 0 0 0 0 0 0 0 0 0 0 0 -135 -94 -94 -69 -64 -66 -0 0 0 0 0 -15 0 0 0 0 0 0 0 0 0 -2 -0 0 -0 0 0 -5 -40 -38 -73 -73
0 0 0 0 0 0 0 0 0 0 0 0 0 0 0 0 0 -172 -96 -78 -62 -64 -87 -84 0 0 0 0 -9 0 0 0 0 0 0 0 -1 -1 -11 -1 -1 -0 0 -25 -102 -48 -42 -65 -46
0 0 0 0 0 0 0 0 0 0 -6 -2 0 0 0 -330 -305 -184 -98 -66 -60 -78 -61 -100 0 0 0 0 0 0 0 0 0 0 0 0 0 0 -5 0 0 -0 -2 -37 -41 -57 -61 -33 -28
0 0 0 0 0 0 0 0 -1 0 0 0 0 0 0 0 -242 -161 -74 -84 -64 -69 -69 -62 -50 0 0 0 0 0 0 0 0 0 0 0 0 0 0 -1 0 -1 0 -0 -10 -48 -21 -31 -46
0 0 0 0 0 -0 0 0 0 0 0 0 0 -140 0 0 0 -65 -65 -65 -36 -60 -43 -55 -47 -106 0 0 0 0 0 0 0 0 0 0 0 0 0 0 -1 0 0 0 0 0 0 0 0
Wind_Speed
nan nan nan nan nan nan nan nan nan nan nan nan nan nan nan nan nan nan 31 34 39 37 33 31 31 30 34 36 38 36 37 43 48 50 53 52 52 49 43 40 39 39 37 37 37 35 35 38 38
nan nan nan nan nan nan nan nan nan nan nan nan nan nan nan 33 29 36 31 34 38 37 35 32 32 30 31 33 35 38 39 40 44 49 51 52 48 48 43 39 38 35 34 36 38 37 38 38 37
nan nan nan nan nan nan nan nan nan nan nan nan nan nan nan 33 29 40 28 34 35 34 31 29 32 32 33 34 34 33 37 38 41 43 46 50 51 45 44 41 38 34 35 36 38 38 39 35 38
nan nan nan nan nan nan nan nan nan nan nan nan nan nan nan nan 38 33 30 33 33 29 26 27 34 32 32 30 30 34 37 39 41 42 43 43 44 48 46 42 42 37 38 39 39 38 36 34 33
nan nan nan nan nan nan nan nan nan nan nan nan nan nan nan 27 33 40 30 28 31 31 27 24 30 30 28 31 30 33 37 38 41 45 45 42 43 43 45 41 39 38 39 40 40 36 37 35 nan
nan nan nan nan nan nan nan nan nan nan nan nan nan nan nan 31 39 35 26 25 23 30 31 24 25 26 25 30 30 33 41 42 42 46 43 43 42 40 40 37 35 39 43 39 40 43 nan nan nan
nan nan nan nan nan nan nan nan nan nan nan nan nan nan nan 28 36 31 26 26 26 29 30 27 26 30 34 25 27 26 31 45 36 48 45 24 37 26 27 36 36 41 44 38 39 nan nan nan nan
nan nan nan nan nan nan nan nan nan nan nan nan nan nan nan 25 35 32 25 24 30 35 32 32 31 30 33 34 39 39 38 54 52 37 nan nan 24 28 36 33 33 40 42 37 38 nan nan nan nan
nan nan nan nan nan nan nan nan nan nan nan nan nan nan nan 38 38 34 24 23 29 31 31 31 32 32 32 32 29 32 34 45 45 41 nan nan 25 17 24 27 31 37 44 42 nan nan nan nan nan
nan nan nan nan nan nan nan nan nan nan nan nan nan 26 38 39 30 36 27 17 21 25 27 29 28 28 26 27 24 22 21 23 nan nan nan nan nan 24 24 25 33 39 nan nan nan nan nan nan nan
nan nan nan nan nan nan nan nan nan nan nan nan nan 25 32 31 28 30 25 16 21 25 25 24 25 22 20 21 21 15 16 nan nan nan nan nan nan 25 25 22 nan nan nan nan nan nan nan nan nan
nan nan nan nan nan nan nan nan nan nan nan nan nan 29 25 28 30 29 24 21 25 23 22 21 20 18 nan nan nan nan nan nan nan nan nan nan nan 31 nan nan nan nan nan nan nan nan nan nan nan
nan nan nan nan nan nan nan nan nan nan nan nan nan 22 22 23 28 25 26 25 26 22 21 18 17 15 nan nan nan nan nan nan nan nan nan nan nan nan nan nan nan nan nan nan nan nan nan nan nan
nan nan nan nan nan nan nan nan nan nan nan nan nan 22 21 25 29 27 25 25 24 23 19 17 20 18 nan nan nan nan nan nan nan nan nan nan nan nan nan nan nan nan nan nan nan nan nan nan nan
nan nan nan nan nan nan nan nan nan nan nan nan nan nan 24 24 33 nan 27 27 nan nan nan 18 20 nan nan nan nan nan nan nan nan nan nan nan nan nan nan nan nan nan nan nan nan nan nan nan nan
nan nan nan nan nan nan nan nan nan nan nan nan nan nan nan nan nan nan nan nan nan nan nan nan nan nan nan nan nan nan nan nan nan nan nan nan nan nan nan nan nan nan nan nan nan nan nan nan nan
nan nan nan nan nan nan nan nan nan nan nan nan nan nan nan nan nan nan nan nan nan nan nan nan nan nan nan nan nan nan nan nan nan nan nan nan nan nan nan nan nan nan nan nan nan nan nan nan nan
nan nan nan nan nan nan nan nan nan nan nan nan nan nan nan nan 14 21 nan nan nan nan nan nan nan nan nan nan nan nan nan nan nan nan nan nan nan nan nan nan nan nan nan nan nan nan nan nan nan
nan nan nan nan nan nan nan nan nan nan nan nan nan nan nan nan nan 17 28 nan nan nan nan nan nan nan nan nan nan nan nan nan nan nan nan nan nan nan nan nan nan nan nan nan nan nan nan nan nan
nan nan nan nan nan nan nan nan nan nan nan nan nan nan nan nan nan 14 24 21 nan nan nan nan nan nan nan nan nan nan nan nan nan nan nan nan nan nan nan nan nan nan nan nan nan nan nan nan nan
nan nan nan nan nan nan nan nan nan nan nan nan nan nan nan nan 13 12 20 18 20 nan nan nan nan nan nan nan nan nan nan nan nan nan nan nan nan nan nan nan nan nan nan nan nan nan nan nan nan
nan nan nan nan nan nan nan nan nan nan nan nan nan nan nan nan nan 13 17 19 17 nan nan nan nan nan nan nan nan nan nan nan nan nan nan nan nan nan nan nan nan nan nan nan nan nan nan nan nan
nan nan nan nan nan nan nan nan nan nan nan nan nan nan nan nan nan 14 19 22 nan nan nan nan nan nan nan nan nan nan nan nan nan nan nan nan nan nan nan nan nan nan nan nan nan nan nan nan nan
nan nan nan nan nan nan nan nan nan nan nan nan nan nan nan nan nan nan 12 22 19 nan nan nan nan nan nan nan nan nan nan nan nan nan nan nan nan nan nan nan nan nan nan nan nan nan nan nan nan
nan nan nan nan nan nan nan nan nan nan nan nan nan nan nan nan nan nan nan 18 nan nan nan nan nan nan nan nan nan nan nan nan nan nan nan nan nan nan nan nan nan nan nan nan nan nan nan nan nan
nan nan nan nan nan nan nan nan nan nan nan nan nan nan nan nan nan nan nan nan 22 nan nan nan nan nan nan nan nan nan nan nan nan nan nan nan nan nan nan nan nan nan nan nan nan nan nan nan nan
nan nan nan nan nan nan nan nan nan nan nan nan nan nan nan nan nan nan nan 16 22 21 nan nan nan nan nan nan nan nan nan nan nan nan nan nan nan nan nan nan nan nan nan nan nan nan nan nan nan
nan nan nan nan nan nan nan nan nan nan nan nan nan nan nan nan nan nan 16 15 21 21 nan nan nan nan nan nan nan nan nan nan nan nan nan nan nan nan nan nan nan nan nan nan nan nan nan nan nan
nan nan nan nan nan nan nan nan nan nan nan nan nan nan nan nan nan nan 8 13 20 25 26 nan nan nan nan nan nan nan nan nan nan nan nan nan nan nan nan nan nan nan nan nan nan nan nan nan nan
nan nan nan nan nan nan nan nan nan nan nan nan nan nan nan nan nan nan 28 29 26 23 25 25 26 nan nan nan nan nan nan nan nan nan nan nan nan nan nan nan nan nan nan nan nan nan nan nan nan
Wind_Direction
nan nan nan nan nan nan nan nan nan nan nan nan nan nan nan nan nan nan 306 297 294 295 296 301 304 304 300 295 293 290 287 286 284 282 276 275 272 269 266 266 269 272 271 268 268 268 270 267 264
nan nan nan nan nan nan nan nan nan nan nan nan nan nan nan 291 288 302 291 297 297 297 302 304 309 307 305 301 295 294 292 287 285 282 281 277 271 270 267 269 268 271 269 267 269 268 269 263 263
nan nan nan nan nan nan nan nan nan nan nan nan nan nan nan 298 298 305 285 288 289 298 300 298 305 301 302 300 296 294 289 285 282 279 279 278 276 266 265 263 264 268 270 270 267 265 269 260 262
nan nan nan nan nan nan nan nan nan nan nan nan nan nan nan nan 313 302 293 291 289 296 292 291 298 298 304 307 298 295 294 290 285 284 282 276 274 272 261 258 262 265 266 263 260 261 257 259 258
nan nan nan nan nan nan nan nan nan nan nan nan nan nan nan 283 300 295 301 297 291 294 293 291 297 303 307 304 305 303 295 293 284 282 280 275 273 268 264 261 264 264 263 263 262 250 245 246 nan
nan nan nan nan nan nan nan nan nan nan nan nan nan nan nan 296 300 294 299 296 293 286 278 283 293 294 299 301 308 308 304 288 286 276 274 276 276 263 261 257 261 264 257 255 258 258 nan nan nan
nan nan nan nan nan nan nan nan nan nan nan nan nan nan nan 295 299 296 301 292 292 279 278 285 289 279 266 274 281 283 295 269 246 243 230 249 261 250 256 257 258 259 258 255 255 nan nan nan nan
nan nan nan nan nan nan nan nan nan nan nan nan nan nan nan 297 304 286 286 291 286 287 292 292 292 285 273 266 275 280 284 290 266 256 nan nan 281 246 256 261 262 258 258 253 251 nan nan nan nan
nan nan nan nan nan nan nan nan nan nan nan nan nan nan nan 296 293 284 282 284 283 288 302 300 296 288 282 274 276 287 291 297 296 280 nan nan 214 221 248 250 257 252 252 249 nan nan nan nan nan
nan nan nan nan nan nan nan nan nan nan nan nan nan 263 282 295 291 296 298 304 290 303 310 303 297 292 285 279 273 271 271 289 nan nan nan nan nan 224 238 256 257 253 nan nan nan nan nan nan nan
nan nan nan nan nan nan nan nan nan nan nan nan nan 284 284 289 298 305 309 308 306 298 305 307 303 308 292 277 268 260 266 nan nan nan nan nan nan 217 221 226 nan nan nan nan nan nan nan nan nan
nan nan nan nan nan nan nan nan nan nan nan nan nan 301 296 308 305 310 309 301 296 304 311 306 312 313 nan nan nan nan nan nan nan nan nan nan nan 214 nan nan nan nan nan nan nan nan nan nan nan
nan nan nan nan nan nan nan nan nan nan nan nan nan 288 300 303 293 299 296 295 298 305 310 312 320 321 nan nan nan nan nan nan nan nan nan nan nan nan nan nan nan nan nan nan nan nan nan nan nan
nan nan nan nan nan nan nan nan nan nan nan nan nan 295 300 303 293 289 296 291 298 303 316 322 318 316 nan nan nan nan nan nan nan nan nan nan nan nan nan nan nan nan nan nan nan nan nan nan nan
nan nan nan nan nan nan nan nan nan nan nan nan nan nan 286 297 290 nan 313 299 nan nan nan 322 314 nan nan nan nan nan nan nan nan nan nan nan nan nan nan nan nan nan nan nan nan nan nan nan nan
nan nan nan nan nan nan nan nan nan nan nan nan nan nan nan nan nan nan nan nan nan nan nan nan nan nan nan nan nan nan nan nan nan nan nan nan nan nan nan nan nan nan nan nan nan nan nan nan nan
nan nan nan nan nan nan nan nan nan nan nan nan nan nan nan nan nan nan nan nan nan nan nan nan nan nan nan nan nan nan nan nan nan nan nan nan nan nan nan nan nan nan nan nan nan nan nan nan nan
nan nan nan nan nan nan nan nan nan nan nan nan nan nan nan nan 326 319 nan nan nan nan nan nan nan nan nan nan nan nan nan nan nan nan nan nan nan nan nan nan nan nan nan nan nan nan nan nan nan
nan nan nan nan nan nan nan nan nan nan nan nan nan nan nan nan nan 308 291 nan nan nan nan nan nan nan nan nan nan nan nan nan nan nan nan nan nan nan nan nan nan nan nan nan nan nan nan nan nan
nan nan nan nan nan nan nan nan nan nan nan nan nan nan nan nan nan 315 299 304 nan nan nan nan nan nan nan nan nan nan nan nan nan nan nan nan nan nan nan nan nan nan nan nan nan nan nan nan nan
nan nan nan nan nan nan nan nan nan nan nan nan nan nan nan nan 293 333 312 312 293 nan nan nan nan nan nan nan nan nan nan nan nan nan nan nan nan nan nan nan nan nan nan nan nan nan nan nan nan
nan nan nan nan nan nan nan nan nan nan nan nan nan nan nan nan nan 331 317 311 304 nan nan nan nan nan nan nan nan nan nan nan nan nan nan nan nan nan nan nan nan nan nan nan nan nan nan nan nan
nan nan nan nan nan nan nan nan nan nan nan nan nan nan nan nan nan 335 346 313 nan nan nan nan nan nan nan nan nan nan nan nan nan nan nan nan nan nan nan nan nan nan nan nan nan nan nan nan nan
nan nan nan nan nan nan nan nan nan nan nan nan nan nan nan nan nan nan 301 283 280 nan nan nan nan nan nan nan nan nan nan nan nan nan nan nan nan nan nan nan nan nan nan nan nan nan nan nan nan
nan nan nan nan nan nan nan nan nan nan nan nan nan nan nan nan nan nan nan 285 nan nan nan nan nan nan nan nan nan nan nan nan nan nan nan nan nan nan nan nan nan nan nan nan nan nan nan nan nan
nan nan nan nan nan nan nan nan nan nan nan nan nan nan nan nan nan nan nan nan 285 nan nan nan nan nan nan nan nan nan nan nan nan nan nan nan nan nan nan nan nan nan nan nan nan nan nan nan nan
nan nan nan nan nan nan nan nan nan nan nan nan nan nan nan nan nan nan nan 295 283 288 nan nan nan nan nan nan nan nan nan nan nan nan nan nan nan nan nan nan nan nan nan nan nan nan nan nan nan
nan nan nan nan nan nan nan nan nan nan nan nan nan nan nan nan nan nan 297 296 280 274 nan nan nan nan nan nan nan nan nan nan nan nan nan nan nan nan nan nan nan nan nan nan nan nan nan nan nan
nan nan nan nan nan nan nan nan nan nan nan nan nan nan nan nan nan nan 273 272 267 272 274 nan nan nan nan nan nan nan nan nan nan nan nan nan nan nan nan nan nan nan nan nan nan nan nan nan nan
nan nan nan nan nan nan nan nan nan nan nan nan nan nan nan nan nan nan 232 231 236 245 264 273 274 nan nan nan nan nan nan nan nan nan nan nan nan nan nan nan nan nan nan nan nan nan nan nan nan